Time,TemperatureF,DewpointF,PressureIn,WindDirection,WindDirectionDegrees,WindSpeedMPH,WindSpeedGustMPH,Humidity,HourlyPrecipIn,Conditions,Clouds,dailyrainin,SolarRadiationWatts/m^2,SoftwareType,DateUTC
2013-06-01 00:00:00,73.4,70.0,30.07,ENE,77,2.0,4.0,89,0.00,,,0.00,0.00,VWS V15.00,2013-06-01 04:00:00,
2013-06-01 00:01:00,73.4,70.0,30.07,ENE,77,2.0,4.0,89,0.00,,CLR,0.00,0.00,VWS V14.01,2013-06-01 04:01:00,
2013-06-01 00:07:00,73.3,69.9,30.07,ENE,76,3.0,4.0,89,0.00,,CLR,0.00,0.00,VWS V14.01,2013-06-01 04:07:00,
2013-06-01 00:12:00,73.2,69.8,30.07,ENE,61,2.0,4.0,89,0.00,,CLR,0.00,0.00,VWS V14.01,2013-06-01 04:12:00,
2013-06-01 00:17:00,73.1,70.0,30.07,East,81,2.0,7.0,90,0.00,,CLR,0.00,0.00,VWS V14.01,2013-06-01 04:17:00,
2013-06-01 00:22:00,73.0,69.9,30.07,ENE,74,3.0,7.0,90,0.00,,CLR,0.00,0.00,VWS V14.01,2013-06-01 04:22:00,
2013-06-01 00:27:00,73.0,69.9,30.06,ENE,72,2.0,7.0,90,0.00,,CLR,0.00,0.00,VWS V14.01,2013-06-01 04:27:00,
2013-06-01 00:30:00,72.9,70.1,30.06,NE,55,3.0,7.0,91,0.00,,,0.00,0.00,VWS V15.00,2013-06-01 04:30:00,
2013-06-01 00:32:00,72.9,70.1,30.06,NE,54,1.0,3.0,91,0.00,,CLR,0.00,0.00,VWS V14.01,2013-06-01 04:32:00,
2013-06-01 00:37:00,72.8,70.0,30.06,ENE,66,2.0,4.0,91,0.00,,CLR,0.00,0.00,VWS V14.01,2013-06-01 04:37:00,
2013-06-01 00:42:00,72.7,69.9,30.06,ENE,71,2.0,5.0,91,0.00,,CLR,0.00,0.00,VWS V14.01,2013-06-01 04:42:00,
2013-06-01 00:47:00,72.7,69.9,30.06,East,86,2.0,6.0,91,0.00,,CLR,0.00,0.00,VWS V14.01,2013-06-01 04:47:00,
2013-06-01 00:52:00,72.6,69.8,30.06,ENE,74,3.0,6.0,91,0.00,,CLR,0.00,0.00,VWS V14.01,2013-06-01 04:52:00,
2013-06-01 00:57:00,72.6,70.2,30.06,ENE,71,3.0,6.0,92,0.00,,CLR,0.00,0.00,VWS V14.01,2013-06-01 04:57:00,
2013-06-01 01:00:00,72.6,70.2,30.06,ENE,76,1.0,6.0,92,0.00,,,0.00,0.00,VWS V15.00,2013-06-01 05:00:00,
2013-06-01 01:02:00,72.6,70.2,30.06,ENE,73,5.0,6.0,92,0.00,,CLR,0.00,0.00,VWS V14.01,2013-06-01 05:02:00,
2013-06-01 01:07:00,72.5,70.1,30.05,East,84,2.0,6.0,92,0.00,,CLR,0.00,0.00,VWS V14.01,2013-06-01 05:07:00,
2013-06-01 01:13:00,72.5,70.1,30.05,ENE,78,3.0,6.0,92,0.00,,CLR,0.00,0.00,VWS V14.01,2013-06-01 05:13:00,
2013-06-01 01:18:00,72.4,69.9,30.05,ENE,69,3.0,6.0,92,0.00,,CLR,0.00,0.00,VWS V14.01,2013-06-01 05:18:00,
2013-06-01 01:23:00,72.3,69.8,30.05,ENE,76,0.0,6.0,92,0.00,,CLR,0.00,0.00,VWS V14.01,2013-06-01 05:23:00,
2013-06-01 01:28:00,72.3,70.2,30.05,ENE,75,3.0,6.0,93,0.00,,CLR,0.00,0.00,VWS V14.01,2013-06-01 05:28:00,
2013-06-01 01:30:00,72.9,70.1,30.06,NE,55,3.0,7.0,91,0.00,,,0.00,0.00,VWS V15.00,2013-06-01 05:30:00,
2013-06-01 01:33:00,72.2,70.1,30.05,ENE,76,1.0,4.0,93,0.00,,CLR,0.00,0.00,VWS V14.01,2013-06-01 05:33:00,
2013-06-01 01:38:00,72.2,70.1,30.05,NE,40,1.0,4.0,93,0.00,,CLR,0.00,0.00,VWS V14.01,2013-06-01 05:38:00,
2013-06-01 01:43:00,72.1,70.0,30.04,NE,47,3.0,4.0,93,0.00,,CLR,0.00,0.00,VWS V14.01,2013-06-01 05:43:00,
2013-06-01 01:48:00,72.0,69.9,30.04,NE,50,2.0,4.0,93,0.00,,CLR,0.00,0.00,VWS V14.01,2013-06-01 05:48:00,
2013-06-01 01:53:00,71.9,69.8,30.04,NE,52,0.0,4.0,93,0.00,,CLR,0.00,0.00,VWS V14.01,2013-06-01 05:53:00,
2013-06-01 01:58:00,71.7,69.6,30.04,NE,46,1.0,4.0,93,0.00,,CLR,0.00,0.00,VWS V14.01,2013-06-01 05:58:00,
2013-06-01 02:00:00,72.6,70.2,30.06,ENE,76,1.0,6.0,92,0.00,,,0.00,0.00,VWS V15.00,2013-06-01 06:00:00,
2013-06-01 02:03:00,71.5,69.7,30.03,NNE,24,2.0,4.0,94,0.00,,CLR,0.00,0.00,VWS V14.01,2013-06-01 06:03:00,
2013-06-01 02:08:00,71.5,69.7,30.03,NNE,32,1.0,4.0,94,0.00,,CLR,0.00,0.00,VWS V14.01,2013-06-01 06:08:00,
2013-06-01 02:13:00,71.5,69.7,30.03,NE,40,1.0,4.0,94,0.00,,CLR,0.00,0.00,VWS V14.01,2013-06-01 06:13:00,
2013-06-01 02:18:00,71.5,69.7,30.03,NE,53,0.0,4.0,94,0.00,,CLR,0.00,0.00,VWS V14.01,2013-06-01 06:18:00,
2013-06-01 02:23:00,71.5,69.7,30.03,NE,39,1.0,4.0,94,0.00,,CLR,0.00,0.00,VWS V14.01,2013-06-01 06:23:00,
2013-06-01 02:28:00,71.4,69.6,30.03,NE,37,1.0,4.0,94,0.00,,CLR,0.00,0.00,VWS V14.01,2013-06-01 06:28:00,
2013-06-01 02:30:00,72.3,70.2,30.05,ENE,69,1.0,6.0,93,0.00,,,0.00,0.00,VWS V15.00,2013-06-01 06:30:00,
2013-06-01 02:33:00,71.4,69.6,30.03,NE,44,2.0,3.0,94,0.00,,CLR,0.00,0.00,VWS V14.01,2013-06-01 06:33:00,
2013-06-01 02:38:00,71.3,69.5,30.03,East,81,0.0,3.0,94,0.00,,CLR,0.00,0.00,VWS V14.01,2013-06-01 06:38:00,
2013-06-01 02:43:00,71.3,69.8,30.02,ENE,73,1.0,3.0,95,0.00,,CLR,0.00,0.00,VWS V14.01,2013-06-01 06:43:00,
2013-06-01 02:48:00,71.3,69.8,30.02,NE,44,1.0,4.0,95,0.00,,CLR,0.00,0.00,VWS V14.01,2013-06-01 06:48:00,
2013-06-01 02:53:00,71.2,69.7,30.02,ENE,72,2.0,6.0,95,0.00,,CLR,0.00,0.00,VWS V14.01,2013-06-01 06:53:00,
2013-06-01 02:58:00,71.2,69.7,30.02,NNE,28,0.0,6.0,95,0.00,,CLR,0.00,0.00,VWS V14.01,2013-06-01 06:58:00,
2013-06-01 03:00:00,71.6,69.8,30.04,NE,38,2.0,4.0,94,0.00,,,0.00,0.00,VWS V15.00,2013-06-01 07:00:00,
2013-06-01 03:03:00,71.2,69.7,30.01,ENE,58,2.0,3.0,95,0.00,,CLR,0.00,0.00,VWS V14.01,2013-06-01 07:03:00,
2013-06-01 03:08:00,71.1,69.6,30.01,NNE,30,1.0,3.0,95,0.00,,CLR,0.00,0.00,VWS V14.01,2013-06-01 07:08:00,
2013-06-01 03:13:00,71.0,69.5,30.01,NNE,32,1.0,3.0,95,0.00,,CLR,0.00,0.00,VWS V14.01,2013-06-01 07:13:00,
2013-06-01 03:18:00,71.0,69.5,30.01,NE,36,2.0,5.0,95,0.00,,CLR,0.00,0.00,VWS V14.01,2013-06-01 07:18:00,
2013-06-01 03:24:00,70.9,69.4,30.01,NE,41,2.0,5.0,95,0.00,,CLR,0.00,0.00,VWS V14.01,2013-06-01 07:24:00,
2013-06-01 03:29:00,70.9,69.7,30.01,NE,40,2.0,5.0,96,0.00,,CLR,0.00,0.00,VWS V14.01,2013-06-01 07:29:00,
2013-06-01 03:30:00,70.9,69.7,30.01,NNE,28,2.0,5.0,96,0.00,,,0.00,0.00,VWS V15.00,2013-06-01 07:30:00,
2013-06-01 03:34:00,70.8,69.3,30.01,NNE,22,3.0,4.0,95,0.00,,CLR,0.00,0.00,VWS V14.01,2013-06-01 07:34:00,
2013-06-01 03:39:00,70.7,69.2,30.01,NE,38,3.0,4.0,95,0.00,,CLR,0.00,0.00,VWS V14.01,2013-06-01 07:39:00,
2013-06-01 03:44:00,70.8,69.3,30.01,NE,35,3.0,4.0,95,0.00,,CLR,0.00,0.00,VWS V14.01,2013-06-01 07:44:00,
2013-06-01 03:49:00,70.8,69.6,30.01,NE,34,3.0,4.0,96,0.00,,CLR,0.00,0.00,VWS V14.01,2013-06-01 07:49:00,
2013-06-01 03:54:00,70.7,69.5,30.01,NNE,27,2.0,4.0,96,0.00,,CLR,0.00,0.00,VWS V14.01,2013-06-01 07:54:00,
2013-06-01 03:59:00,70.7,69.5,30.01,NE,38,0.0,4.0,96,0.00,,CLR,0.00,0.00,VWS V14.01,2013-06-01 07:59:00,
2013-06-01 04:00:00,70.6,69.4,30.01,NNE,24,2.0,4.0,96,0.00,,,0.00,0.00,VWS V15.00,2013-06-01 08:00:00,
2013-06-01 04:04:00,70.6,69.4,30.00,NE,42,1.0,3.0,96,0.00,,CLR,0.00,0.00,VWS V14.01,2013-06-01 08:04:00,
2013-06-01 04:09:00,70.6,69.4,30.00,NE,53,1.0,3.0,96,0.00,,CLR,0.00,0.00,VWS V14.01,2013-06-01 08:09:00,
2013-06-01 04:14:00,70.6,69.4,30.00,ENE,65,3.0,5.0,96,0.00,,CLR,0.00,0.00,VWS V14.01,2013-06-01 08:14:00,
2013-06-01 04:19:00,70.7,69.5,30.00,ENE,73,4.0,5.0,96,0.00,,CLR,0.00,0.00,VWS V14.01,2013-06-01 08:19:00,
2013-06-01 04:24:00,70.7,69.5,30.00,ENE,72,1.0,5.0,96,0.00,,CLR,0.00,0.00,VWS V14.01,2013-06-01 08:24:00,
2013-06-01 04:29:00,70.6,69.4,30.00,ENE,62,1.0,5.0,96,0.00,,CLR,0.00,0.00,VWS V14.01,2013-06-01 08:29:00,
2013-06-01 04:30:00,70.9,69.7,30.01,NNE,28,2.0,5.0,96,0.00,,,0.00,0.00,VWS V15.00,2013-06-01 08:30:00,
2013-06-01 04:34:00,70.6,69.4,30.00,ENE,73,0.0,2.0,96,0.00,,CLR,0.00,0.00,VWS V14.01,2013-06-01 08:34:00,
2013-06-01 04:39:00,70.5,69.3,30.00,ENE,59,1.0,2.0,96,0.00,,CLR,0.00,0.00,VWS V14.01,2013-06-01 08:39:00,
2013-06-01 04:44:00,70.4,69.2,30.00,NE,38,2.0,2.0,96,0.00,,CLR,0.00,0.00,VWS V14.01,2013-06-01 08:44:00,
2013-06-01 04:49:00,70.4,69.2,30.01,NE,46,0.0,2.0,96,0.00,,CLR,0.00,0.00,VWS V14.01,2013-06-01 08:49:00,
2013-06-01 04:54:00,70.4,69.2,30.01,NNE,23,0.0,3.0,96,0.00,,CLR,0.00,0.00,VWS V14.01,2013-06-01 08:54:00,
2013-06-01 04:59:00,70.4,69.2,30.01,NE,48,2.0,3.0,96,0.00,,CLR,0.00,0.00,VWS V14.01,2013-06-01 08:59:00,
2013-06-01 05:00:00,70.4,69.2,30.01,NE,48,1.0,3.0,96,0.00,,,0.00,0.00,VWS V15.00,2013-06-01 09:00:00,
2013-06-01 05:04:00,70.4,69.5,30.01,NE,48,2.0,2.0,97,0.00,,CLR,0.00,0.00,VWS V14.01,2013-06-01 09:04:00,
2013-06-01 05:09:00,70.4,69.5,30.01,ENE,68,3.0,3.0,97,0.00,,CLR,0.00,0.00,VWS V14.01,2013-06-01 09:09:00,
2013-06-01 05:14:00,70.4,69.5,30.01,NE,37,0.0,3.0,97,0.00,,CLR,0.00,0.00,VWS V14.01,2013-06-01 09:14:00,
2013-06-01 05:20:00,70.4,69.5,30.01,NE,44,2.0,4.0,97,0.00,,FEW029,0.00,0.00,VWS V14.01,2013-06-01 09:20:00,
2013-06-01 05:25:00,70.5,69.6,30.01,NE,39,1.0,4.0,97,0.00,,FEW029,0.00,0.00,VWS V14.01,2013-06-01 09:25:00,
2013-06-01 05:30:00,70.6,69.7,30.01,NE,36,2.0,4.0,97,0.00,,FEW029,0.00,0.00,VWS V14.01,2013-06-01 09:30:00,
2013-06-01 05:35:00,70.5,69.6,30.01,NE,34,3.0,4.0,97,0.00,,FEW029,0.00,0.00,VWS V14.01,2013-06-01 09:35:00,
2013-06-01 05:40:00,70.5,69.6,30.02,NNE,30,3.0,4.0,97,0.00,,FEW029,0.00,0.00,VWS V14.01,2013-06-01 09:40:00,
2013-06-01 05:45:00,70.5,69.6,30.01,NNE,30,3.0,4.0,97,0.00,,FEW029,0.00,0.00,VWS V14.01,2013-06-01 09:45:00,
2013-06-01 05:50:00,70.5,69.6,30.02,NE,38,3.0,4.0,97,0.00,,FEW029,0.00,0.00,VWS V14.01,2013-06-01 09:50:00,
2013-06-01 05:55:00,70.6,69.7,30.02,NE,34,1.0,4.0,97,0.00,,FEW029,0.00,0.00,VWS V14.01,2013-06-01 09:55:00,
2013-06-01 06:00:00,70.6,69.7,30.02,NE,36,3.0,4.0,97,0.00,,CLR,0.00,0.00,VWS V14.01,2013-06-01 10:00:00,
2013-06-01 06:05:00,70.6,69.7,30.02,NE,34,2.0,5.0,97,0.00,,CLR,0.00,0.00,VWS V14.01,2013-06-01 10:05:00,
2013-06-01 06:10:00,70.7,69.8,30.03,NE,40,2.0,5.0,97,0.00,,CLR,0.00,0.00,VWS V14.01,2013-06-01 10:10:00,
2013-06-01 06:15:00,70.5,69.6,30.03,NNE,26,1.0,5.0,97,0.00,,CLR,0.00,0.00,VWS V14.01,2013-06-01 10:15:00,
2013-06-01 06:20:00,70.5,69.6,30.03,NE,37,3.0,5.0,97,0.00,,SCT027,0.00,0.00,VWS V14.01,2013-06-01 10:20:00,
2013-06-01 06:25:00,70.4,69.5,30.03,NNE,31,0.0,5.0,97,0.00,,SCT027,0.00,0.00,VWS V14.01,2013-06-01 10:25:00,
2013-06-01 06:30:00,70.4,69.5,30.03,NE,40,0.0,5.0,97,0.00,,SCT027,0.00,0.00,VWS V14.01,2013-06-01 10:30:00,
2013-06-01 06:35:00,70.4,69.5,30.04,ENE,57,2.0,3.0,97,0.00,,SCT027,0.00,5.00,VWS V14.01,2013-06-01 10:35:00,
2013-06-01 06:40:00,70.4,69.5,30.04,NE,42,2.0,4.0,97,0.00,,BKN027,0.00,9.00,VWS V14.01,2013-06-01 10:40:00,
2013-06-01 06:45:00,70.4,69.5,30.04,NE,49,4.0,4.0,97,0.00,,BKN027,0.00,11.00,VWS V14.01,2013-06-01 10:45:00,
2013-06-01 06:50:00,70.5,69.6,30.04,ENE,77,2.0,4.0,97,0.00,,BKN027,0.00,14.00,VWS V14.01,2013-06-01 10:50:00,
2013-06-01 06:55:00,70.6,69.7,30.03,East,84,1.0,4.0,97,0.00,,BKN027,0.00,18.00,VWS V14.01,2013-06-01 10:55:00,
2013-06-01 07:00:00,70.6,69.7,30.04,ENE,78,3.0,4.0,97,0.00,,SCT029,0.00,23.00,VWS V14.01,2013-06-01 11:00:00,
2013-06-01 07:05:00,70.7,69.8,30.04,NE,34,3.0,4.0,97,0.00,,SCT029,0.00,26.00,VWS V14.01,2013-06-01 11:05:00,
2013-06-01 07:10:00,70.8,69.9,30.04,ENE,69,2.0,4.0,97,0.00,,SCT029,0.00,46.00,VWS V14.01,2013-06-01 11:10:00,
2013-06-01 07:15:00,71.0,70.1,30.04,NNE,30,1.0,4.0,97,0.00,,SCT029,0.00,56.00,VWS V14.01,2013-06-01 11:15:00,
2013-06-01 07:20:00,71.2,70.3,30.04,NNE,31,3.0,4.0,97,0.00,,SCT029,0.00,67.00,VWS V14.01,2013-06-01 11:20:00,
2013-06-01 07:25:00,71.5,70.6,30.04,NE,53,2.0,4.0,97,0.00,,SCT029,0.00,79.00,VWS V14.01,2013-06-01 11:25:00,
2013-06-01 07:30:00,71.7,70.8,30.04,NE,54,2.0,5.0,97,0.00,,SCT029,0.00,91.00,VWS V14.01,2013-06-01 11:30:00,
2013-06-01 07:35:00,72.1,71.2,30.05,NNE,26,3.0,4.0,97,0.00,,SCT029,0.00,104.00,VWS V14.01,2013-06-01 11:35:00,
2013-06-01 07:40:00,72.4,71.2,30.05,ENE,76,7.0,7.0,96,0.00,,SCT029,0.00,113.00,VWS V14.01,2013-06-01 11:40:00,
2013-06-01 07:45:00,72.7,71.5,30.04,East,82,3.0,8.0,96,0.00,,SCT029,0.00,120.00,VWS V14.01,2013-06-01 11:45:00,
2013-06-01 07:50:00,73.1,71.9,30.04,NNE,32,6.0,8.0,96,0.00,,SCT029,0.00,134.00,VWS V14.01,2013-06-01 11:50:00,
2013-06-01 07:55:00,73.4,71.9,30.05,NE,46,2.0,8.0,95,0.00,,SCT029,0.00,158.00,VWS V14.01,2013-06-01 11:55:00,
2013-06-01 08:00:00,73.8,72.3,30.05,East,82,6.0,8.0,95,0.00,,FEW022,0.00,174.00,VWS V14.01,2013-06-01 12:00:00,
2013-06-01 08:05:00,74.2,72.4,30.05,NE,40,5.0,9.0,94,0.00,,FEW022,0.00,197.00,VWS V14.01,2013-06-01 12:05:00,
2013-06-01 08:11:00,74.5,72.7,30.05,NE,34,4.0,9.0,94,0.00,,FEW022,0.00,206.00,VWS V14.01,2013-06-01 12:11:00,
2013-06-01 08:16:00,74.8,72.6,30.05,ENE,78,4.0,9.0,93,0.00,,FEW022,0.00,221.00,VWS V14.01,2013-06-01 12:16:00,
2013-06-01 08:21:00,75.1,72.6,30.05,ENE,63,5.0,9.0,92,0.00,,FEW022,0.00,192.00,VWS V14.01,2013-06-01 12:21:00,
2013-06-01 08:26:00,75.7,72.9,30.05,ENE,69,3.0,9.0,91,0.00,,FEW022,0.00,213.00,VWS V14.01,2013-06-01 12:26:00,
2013-06-01 08:30:00,76.1,73.0,30.05,ENE,74,5.0,9.0,90,0.00,,,0.00,251.00,VWS V15.00,2013-06-01 12:30:00,
2013-06-01 08:31:00,76.1,73.0,30.05,East,88,6.0,6.0,90,0.00,,FEW022,0.00,251.00,VWS V14.01,2013-06-01 12:31:00,
2013-06-01 08:36:00,76.7,73.2,30.05,ESE,123,1.0,7.0,89,0.00,,FEW022,0.00,272.00,VWS V14.01,2013-06-01 12:36:00,
2013-06-01 08:41:00,77.1,73.6,30.05,East,100,7.0,12.0,89,0.00,,FEW022,0.00,239.00,VWS V14.01,2013-06-01 12:41:00,
2013-06-01 08:46:00,77.3,73.5,30.05,East,97,7.0,12.0,88,0.00,,FEW022,0.00,320.00,VWS V14.01,2013-06-01 12:46:00,
2013-06-01 08:51:00,77.6,73.4,30.05,East,88,2.0,12.0,87,0.00,,FEW022,0.00,316.00,VWS V14.01,2013-06-01 12:51:00,
2013-06-01 08:56:00,77.7,73.5,30.05,ENE,65,8.0,12.0,87,0.00,,FEW022,0.00,98.00,VWS V14.01,2013-06-01 12:56:00,
2013-06-01 09:00:00,77.9,73.4,30.05,East,86,5.0,12.0,86,0.00,,,0.00,315.00,VWS V15.00,2013-06-01 13:00:00,
2013-06-01 09:01:00,77.9,73.4,30.05,ESE,107,4.0,5.0,86,0.00,,FEW022,0.00,287.00,VWS V14.01,2013-06-01 13:01:00,
2013-06-01 09:06:00,78.0,73.5,30.05,East,92,3.0,11.0,86,0.00,,FEW022,0.00,232.00,VWS V14.01,2013-06-01 13:06:00,
2013-06-01 09:11:00,78.0,73.5,30.05,ENE,67,4.0,13.0,86,0.00,,FEW022,0.00,197.00,VWS V14.01,2013-06-01 13:11:00,
2013-06-01 09:16:00,77.8,73.3,30.05,ENE,71,7.0,13.0,86,0.00,,FEW022,0.00,229.00,VWS V14.01,2013-06-01 13:16:00,
2013-06-01 09:21:00,78.1,73.2,30.05,ENE,77,4.0,14.0,85,0.00,,BKN018,0.00,220.00,VWS V14.01,2013-06-01 13:21:00,
2013-06-01 09:26:00,78.5,73.6,30.05,East,85,6.0,14.0,85,0.00,,BKN018,0.00,295.00,VWS V14.01,2013-06-01 13:26:00,
2013-06-01 09:30:00,76.1,73.0,30.05,ENE,74,5.0,9.0,90,0.00,,,0.00,251.00,VWS V15.00,2013-06-01 13:30:00,
2013-06-01 09:31:00,78.7,73.5,30.05,East,96,8.0,9.0,84,0.00,,BKN018,0.00,251.00,VWS V14.01,2013-06-01 13:31:00,
2013-06-01 09:36:00,78.7,73.5,30.05,East,101,7.0,11.0,84,0.00,,BKN018,0.00,236.00,VWS V14.01,2013-06-01 13:36:00,
2013-06-01 09:41:00,78.8,73.6,30.05,ENE,72,5.0,12.0,84,0.00,,BKN018,0.00,204.00,VWS V14.01,2013-06-01 13:41:00,
2013-06-01 09:46:00,79.1,73.8,30.05,ENE,76,5.0,13.0,84,0.00,,BKN018,0.00,443.00,VWS V14.01,2013-06-01 13:46:00,
2013-06-01 09:51:00,79.3,73.3,30.05,ENE,78,5.0,13.0,82,0.00,,BKN018,0.00,181.00,VWS V14.01,2013-06-01 13:51:00,
2013-06-01 09:56:00,79.7,73.7,30.05,ESE,121,9.0,13.0,82,0.00,,BKN018,0.00,230.00,VWS V14.01,2013-06-01 13:56:00,
2013-06-01 10:00:00,79.9,73.9,30.05,ESE,112,5.0,13.0,82,0.00,,,0.00,213.00,VWS V15.00,2013-06-01 14:00:00,
2013-06-01 10:01:00,79.9,73.9,30.05,ESE,110,11.0,11.0,82,0.00,,BKN020,0.00,213.00,VWS V14.01,2013-06-01 14:01:00,
2013-06-01 10:06:00,80.0,73.7,30.05,East,101,10.0,12.0,81,0.00,,BKN020,0.00,199.00,VWS V14.01,2013-06-01 14:06:00,
2013-06-01 10:11:00,80.2,74.2,30.05,SE,128,4.0,13.0,82,0.00,,BKN020,0.00,429.00,VWS V14.01,2013-06-01 14:11:00,
2013-06-01 10:16:00,81.0,74.2,30.05,ESE,118,4.0,13.0,80,0.00,,BKN020,0.00,348.00,VWS V14.01,2013-06-01 14:16:00,
2013-06-01 10:21:00,81.3,73.4,30.04,ESE,113,11.0,17.0,77,0.00,,BKN020,0.00,288.00,VWS V14.01,2013-06-01 14:21:00,
2013-06-01 10:26:00,81.1,73.2,30.04,East,96,7.0,17.0,77,0.00,,BKN020,0.00,334.00,VWS V14.01,2013-06-01 14:26:00,
2013-06-01 10:30:00,80.9,73.0,30.04,ENE,71,9.0,17.0,77,0.00,,,0.00,322.00,VWS V15.00,2013-06-01 14:30:00,
2013-06-01 10:31:00,80.9,73.0,30.04,East,87,9.0,10.0,77,0.00,,BKN020,0.00,322.00,VWS V14.01,2013-06-01 14:31:00,
2013-06-01 10:36:00,80.8,73.3,30.04,ENE,71,9.0,12.0,78,0.00,,BKN020,0.00,304.00,VWS V14.01,2013-06-01 14:36:00,
2013-06-01 10:41:00,82.0,73.7,30.04,NNE,27,9.0,15.0,76,0.00,,BKN020,0.00,868.00,VWS V14.01,2013-06-01 14:41:00,
2013-06-01 10:46:00,82.5,74.2,30.04,East,87,13.0,15.0,76,0.00,,BKN020,0.00,933.00,VWS V14.01,2013-06-01 14:46:00,
2013-06-01 10:51:00,82.5,74.2,30.04,ENE,74,14.0,15.0,76,0.00,,BKN020,0.00,979.00,VWS V14.01,2013-06-01 14:51:00,
2013-06-01 10:56:00,82.5,73.4,30.04,ESE,117,5.0,15.0,74,0.00,,BKN020,0.00,207.00,VWS V14.01,2013-06-01 14:56:00,
2013-06-01 11:00:00,81.8,73.1,30.04,East,95,2.0,15.0,75,0.00,,,0.00,366.00,VWS V15.00,2013-06-01 15:00:00,
2013-06-01 11:01:00,81.8,73.5,30.04,NE,53,3.0,8.0,76,0.00,,BKN026,0.00,315.00,VWS V14.01,2013-06-01 15:01:00,
2013-06-01 11:07:00,82.0,73.7,30.04,NNE,20,6.0,13.0,76,0.00,,BKN026,0.00,951.00,VWS V14.01,2013-06-01 15:07:00,
2013-06-01 11:12:00,82.7,73.2,30.03,ESE,109,8.0,14.0,73,0.00,,BKN026,0.00,534.00,VWS V14.01,2013-06-01 15:12:00,
2013-06-01 11:17:00,82.5,73.4,30.03,ENE,76,5.0,14.0,74,0.00,,BKN026,0.00,411.00,VWS V14.01,2013-06-01 15:17:00,
2013-06-01 11:22:00,82.7,74.0,30.03,ENE,70,10.0,14.0,75,0.00,,BKN026,0.00,401.00,VWS V14.01,2013-06-01 15:22:00,
2013-06-01 11:27:00,82.7,73.6,30.03,East,85,8.0,14.0,74,0.00,,BKN026,0.00,417.00,VWS V14.01,2013-06-01 15:27:00,
2013-06-01 11:30:00,83.0,74.3,30.04,ENE,69,7.0,14.0,75,0.00,,,0.00,415.00,VWS V15.00,2013-06-01 15:30:00,
2013-06-01 11:32:00,83.0,73.5,30.04,ENE,78,8.0,10.0,73,0.00,,BKN026,0.00,420.00,VWS V14.01,2013-06-01 15:32:00,
2013-06-01 11:37:00,83.2,74.5,30.03,East,92,7.0,13.0,75,0.00,,BKN026,0.00,462.00,VWS V14.01,2013-06-01 15:37:00,
2013-06-01 11:42:00,83.4,73.8,30.03,ENE,69,12.0,13.0,73,0.00,,BKN026,0.00,454.00,VWS V14.01,2013-06-01 15:42:00,
2013-06-01 11:47:00,83.5,74.3,30.03,NE,53,8.0,14.0,74,0.00,,BKN026,0.00,475.00,VWS V14.01,2013-06-01 15:47:00,
2013-06-01 11:52:00,83.4,73.8,30.03,East,90,8.0,14.0,73,0.00,,BKN026,0.00,464.00,VWS V14.01,2013-06-01 15:52:00,
2013-06-01 11:57:00,84.6,75.4,30.03,East,93,13.0,14.0,74,0.00,,BKN026,0.00,759.00,VWS V14.01,2013-06-01 15:57:00,
2013-06-01 12:00:00,84.8,74.4,30.02,SE,138,9.0,16.0,71,0.00,,,0.00,759.00,VWS V15.00,2013-06-01 16:00:00,
2013-06-01 12:02:00,84.5,73.7,30.02,ENE,74,10.0,12.0,70,0.00,,BKN028,0.00,417.00,VWS V14.01,2013-06-01 16:02:00,
2013-06-01 12:07:00,84.4,74.0,30.03,ENE,65,8.0,15.0,71,0.00,,BKN028,0.00,571.00,VWS V14.01,2013-06-01 16:07:00,
2013-06-01 12:12:00,84.4,74.0,30.02,NE,42,3.0,15.0,71,0.00,,BKN028,0.00,647.00,VWS V14.01,2013-06-01 16:12:00,
2013-06-01 12:17:00,85.1,74.6,30.02,ESE,123,9.0,15.0,71,0.00,,BKN028,0.00,647.00,VWS V14.01,2013-06-01 16:17:00,
2013-06-01 12:22:00,84.8,73.9,30.02,East,84,7.0,16.0,70,0.00,,BKN028,0.00,497.00,VWS V14.01,2013-06-01 16:22:00,
2013-06-01 12:27:00,84.7,73.8,30.02,NE,40,8.0,16.0,70,0.00,,BKN028,0.00,480.00,VWS V14.01,2013-06-01 16:27:00,
2013-06-01 12:30:00,83.0,74.3,30.04,ENE,69,7.0,14.0,75,0.00,,,0.00,415.00,VWS V15.00,2013-06-01 16:30:00,
2013-06-01 12:32:00,85.4,75.8,30.02,ENE,70,4.0,8.0,73,0.00,,BKN028,0.00,1273.00,VWS V14.01,2013-06-01 16:32:00,
2013-06-01 12:37:00,85.3,73.6,30.02,ESE,111,12.0,14.0,68,0.00,,BKN028,0.00,399.00,VWS V14.01,2013-06-01 16:37:00,
2013-06-01 12:42:00,84.7,73.8,30.02,ENE,69,11.0,14.0,70,0.00,,BKN028,0.00,396.00,VWS V14.01,2013-06-01 16:42:00,
2013-06-01 12:47:00,84.9,74.0,30.02,East,94,6.0,15.0,70,0.00,,BKN028,0.00,272.00,VWS V14.01,2013-06-01 16:47:00,
2013-06-01 12:52:00,84.3,73.5,30.02,ESE,112,9.0,16.0,70,0.00,,BKN028,0.00,299.00,VWS V14.01,2013-06-01 16:52:00,
2013-06-01 12:57:00,85.3,74.8,30.02,ESE,108,8.0,16.0,71,0.00,,BKN028,0.00,1143.00,VWS V14.01,2013-06-01 16:57:00,
2013-06-01 13:00:00,86.0,75.1,30.02,ESE,103,7.0,16.0,70,0.00,,,0.00,1074.00,VWS V15.00,2013-06-01 17:00:00,
2013-06-01 13:03:00,86.2,74.8,30.02,East,101,3.0,9.0,69,0.00,,BKN033,0.00,1079.00,VWS V14.01,2013-06-01 17:03:00,
2013-06-01 13:08:00,86.2,74.4,30.01,ENE,77,7.0,13.0,68,0.00,,BKN033,0.00,1143.00,VWS V14.01,2013-06-01 17:08:00,
2013-06-01 13:13:00,87.1,75.3,30.02,East,92,8.0,18.0,68,0.00,,BKN033,0.00,1020.00,VWS V14.01,2013-06-01 17:13:00,
2013-06-01 13:18:00,86.8,75.0,30.01,East,96,3.0,18.0,68,0.00,,BKN033,0.00,1049.00,VWS V14.01,2013-06-01 17:18:00,
2013-06-01 13:23:00,87.2,74.5,30.01,SE,138,12.0,18.0,66,0.00,,BKN033,0.00,1104.00,VWS V14.01,2013-06-01 17:23:00,
2013-06-01 13:28:00,86.7,75.3,30.01,East,84,9.0,18.0,69,0.00,,BKN033,0.00,1002.00,VWS V14.01,2013-06-01 17:28:00,
2013-06-01 13:30:00,87.2,75.8,30.01,ESE,115,12.0,18.0,69,0.00,,,0.00,995.00,VWS V15.00,2013-06-01 17:30:00,
2013-06-01 13:33:00,87.0,74.3,30.01,East,92,7.0,13.0,66,0.00,,BKN033,0.00,236.00,VWS V14.01,2013-06-01 17:33:00,
2013-06-01 13:38:00,87.2,75.4,30.01,ESE,113,11.0,13.0,68,0.00,,BKN033,0.00,1071.00,VWS V14.01,2013-06-01 17:38:00,
2013-06-01 13:43:00,87.4,74.7,30.01,ESE,110,15.0,18.0,66,0.00,,BKN033,0.00,1074.00,VWS V14.01,2013-06-01 17:43:00,
2013-06-01 13:48:00,87.4,74.2,30.01,East,84,8.0,18.0,65,0.00,,BKN033,0.00,1048.00,VWS V14.01,2013-06-01 17:48:00,
2013-06-01 13:53:00,87.7,74.0,30.01,ESE,105,12.0,18.0,64,0.00,,BKN033,0.00,1013.00,VWS V14.01,2013-06-01 17:53:00,
2013-06-01 13:58:00,87.6,74.8,30.01,ENE,69,5.0,18.0,66,0.00,,BKN033,0.00,988.00,VWS V14.01,2013-06-01 17:58:00,
2013-06-01 14:00:00,86.0,75.1,30.02,ESE,103,7.0,16.0,70,0.00,,,0.00,1074.00,VWS V15.00,2013-06-01 18:00:00,
2013-06-01 14:03:00,87.9,74.2,30.01,ESE,103,3.0,13.0,64,0.00,,SCT045,0.00,988.00,VWS V14.01,2013-06-01 18:03:00,
2013-06-01 14:08:00,88.0,74.8,30.01,East,90,7.0,14.0,65,0.00,,SCT045,0.00,272.00,VWS V14.01,2013-06-01 18:08:00,
2013-06-01 14:13:00,86.9,74.2,30.00,East,94,9.0,14.0,66,0.00,,SCT045,0.00,1014.00,VWS V14.01,2013-06-01 18:13:00,
2013-06-01 14:18:00,87.5,74.3,30.00,East,98,6.0,16.0,65,0.00,,SCT045,0.00,1027.00,VWS V14.01,2013-06-01 18:18:00,
2013-06-01 14:23:00,87.9,75.1,30.00,ESE,108,10.0,16.0,66,0.00,,SCT045,0.00,956.00,VWS V14.01,2013-06-01 18:23:00,
2013-06-01 14:28:00,88.2,75.4,29.99,ENE,77,3.0,16.0,66,0.00,,SCT045,0.00,970.00,VWS V14.01,2013-06-01 18:28:00,
2013-06-01 14:30:00,88.5,74.3,29.99,ENE,71,4.0,16.0,63,0.00,,,0.00,991.00,VWS V15.00,2013-06-01 18:30:00,
2013-06-01 14:33:00,89.0,76.2,29.99,ENE,66,4.0,13.0,66,0.00,,SCT045,0.00,1034.00,VWS V14.01,2013-06-01 18:33:00,
2013-06-01 14:38:00,88.1,73.9,29.99,ESE,103,3.0,15.0,63,0.00,,SCT045,0.00,236.00,VWS V14.01,2013-06-01 18:38:00,
2013-06-01 14:43:00,87.2,74.0,29.99,East,84,7.0,17.0,65,0.00,,SCT045,0.00,267.00,VWS V14.01,2013-06-01 18:43:00,
2013-06-01 14:48:00,86.9,73.7,29.99,ENE,78,10.0,17.0,65,0.00,,SCT045,0.00,229.00,VWS V14.01,2013-06-01 18:48:00,
2013-06-01 14:53:00,87.9,74.7,29.98,ENE,76,5.0,17.0,65,0.00,,SCT045,0.00,1074.00,VWS V14.01,2013-06-01 18:53:00,
2013-06-01 14:58:00,87.4,74.2,29.99,ENE,74,8.0,17.0,65,0.00,,SCT045,0.00,243.00,VWS V14.01,2013-06-01 18:58:00,
2013-06-01 15:00:00,87.8,74.1,30.01,ENE,69,11.0,18.0,64,0.00,,,0.00,928.00,VWS V15.00,2013-06-01 19:00:00,
2013-06-01 15:03:00,86.7,74.4,29.98,NNE,19,6.0,12.0,67,0.00,,BKN035,0.00,1011.00,VWS V14.01,2013-06-01 19:03:00,
2013-06-01 15:08:00,88.0,74.3,29.98,East,83,7.0,15.0,64,0.00,,BKN035,0.00,285.00,VWS V14.01,2013-06-01 19:08:00,
2013-06-01 15:13:00,88.1,74.4,29.98,East,81,10.0,17.0,64,0.00,,BKN035,0.00,990.00,VWS V14.01,2013-06-01 19:13:00,
2013-06-01 15:18:00,87.3,75.4,29.98,East,92,13.0,19.0,68,0.00,,BKN035,0.00,949.00,VWS V14.01,2013-06-01 19:18:00,
2013-06-01 15:23:00,87.3,74.6,29.98,ENE,70,7.0,19.0,66,0.00,,BKN035,0.00,346.00,VWS V14.01,2013-06-01 19:23:00,
2013-06-01 15:28:00,87.2,74.9,29.98,East,83,8.0,19.0,67,0.00,,BKN035,0.00,946.00,VWS V14.01,2013-06-01 19:28:00,
2013-06-01 15:30:00,87.0,74.3,29.98,ENE,67,11.0,19.0,66,0.00,,,0.00,327.00,VWS V15.00,2013-06-01 19:30:00,
2013-06-01 15:34:00,87.1,74.4,29.98,ESE,109,5.0,15.0,66,0.00,,BKN035,0.00,202.00,VWS V14.01,2013-06-01 19:34:00,
2013-06-01 15:39:00,87.0,75.2,29.98,East,84,13.0,15.0,68,0.00,,BKN035,0.00,940.00,VWS V14.01,2013-06-01 19:39:00,
2013-06-01 15:44:00,87.1,75.3,29.98,East,92,5.0,16.0,68,0.00,,BKN035,0.00,976.00,VWS V14.01,2013-06-01 19:44:00,
2013-06-01 15:49:00,87.4,75.6,29.98,ENE,63,12.0,16.0,68,0.00,,BKN035,0.00,1016.00,VWS V14.01,2013-06-01 19:49:00,
2013-06-01 15:54:00,86.9,75.1,29.98,ENE,75,5.0,16.0,68,0.00,,BKN035,0.00,1002.00,VWS V14.01,2013-06-01 19:54:00,
2013-06-01 15:59:00,86.8,74.5,29.97,NE,53,5.0,16.0,67,0.00,,BKN035,0.00,223.00,VWS V14.01,2013-06-01 19:59:00,
2013-06-01 16:00:00,86.2,74.4,29.97,ENE,70,11.0,16.0,68,0.00,,,0.00,244.00,VWS V15.00,2013-06-01 20:00:00,
2013-06-01 16:04:00,86.3,75.4,29.97,NNE,29,16.0,16.0,70,0.00,,BKN040,0.00,997.00,VWS V14.01,2013-06-01 20:04:00,
2013-06-01 16:09:00,86.3,74.9,29.97,East,84,10.0,17.0,69,0.00,,BKN040,0.00,279.00,VWS V14.01,2013-06-01 20:09:00,
2013-06-01 16:14:00,85.7,74.8,29.97,East,97,8.0,17.0,70,0.00,,BKN040,0.00,265.00,VWS V14.01,2013-06-01 20:14:00,
2013-06-01 16:19:00,86.4,75.0,29.97,ENE,73,5.0,19.0,69,0.00,,BKN040,0.00,995.00,VWS V14.01,2013-06-01 20:19:00,
2013-06-01 16:24:00,86.2,74.4,29.97,East,94,11.0,19.0,68,0.00,,BKN040,0.00,397.00,VWS V14.01,2013-06-01 20:24:00,
2013-06-01 16:29:00,85.6,74.3,29.97,ENE,72,7.0,19.0,69,0.00,,BKN040,0.00,367.00,VWS V14.01,2013-06-01 20:29:00,
2013-06-01 16:30:00,87.0,74.3,29.98,ENE,67,11.0,19.0,66,0.00,,,0.00,327.00,VWS V15.00,2013-06-01 20:30:00,
2013-06-01 16:34:00,85.1,73.8,29.97,ENE,69,5.0,14.0,69,0.00,,BKN040,0.00,237.00,VWS V14.01,2013-06-01 20:34:00,
2013-06-01 16:39:00,84.7,73.8,29.97,ENE,76,11.0,16.0,70,0.00,,BKN040,0.00,288.00,VWS V14.01,2013-06-01 20:39:00,
2013-06-01 16:44:00,85.5,74.2,29.97,NNE,25,7.0,17.0,69,0.00,,BKN040,0.00,427.00,VWS V14.01,2013-06-01 20:44:00,
2013-06-01 16:49:00,86.8,74.5,29.97,East,88,15.0,17.0,67,0.00,,BKN040,0.00,738.00,VWS V14.01,2013-06-01 20:49:00,
2013-06-01 16:54:00,86.1,74.3,29.97,East,80,13.0,17.0,68,0.00,,BKN040,0.00,744.00,VWS V14.01,2013-06-01 20:54:00,
2013-06-01 16:59:00,85.0,73.7,29.97,East,81,11.0,17.0,69,0.00,,BKN040,0.00,207.00,VWS V14.01,2013-06-01 20:59:00,
2013-06-01 17:00:00,84.8,74.4,29.97,ENE,61,8.0,17.0,71,0.00,,,0.00,239.00,VWS V15.00,2013-06-01 21:00:00,
2013-06-01 17:04:00,85.2,74.3,29.96,East,84,8.0,13.0,70,0.00,,BKN040,0.00,621.00,VWS V14.01,2013-06-01 21:04:00,
2013-06-01 17:09:00,86.2,74.8,29.96,East,101,9.0,13.0,69,0.00,,BKN040,0.00,707.00,VWS V14.01,2013-06-01 21:09:00,
2013-06-01 17:14:00,86.3,74.9,29.96,ENE,78,13.0,15.0,69,0.00,,BKN040,0.00,288.00,VWS V14.01,2013-06-01 21:14:00,
2013-06-01 17:19:00,84.8,73.9,29.97,ESE,105,8.0,19.0,70,0.00,,BKN040,0.00,123.00,VWS V14.01,2013-06-01 21:19:00,
2013-06-01 17:24:00,83.7,73.3,29.97,NNE,32,17.0,19.0,71,0.00,,BKN040,0.00,559.00,VWS V14.01,2013-06-01 21:24:00,
2013-06-01 17:29:00,84.1,73.3,29.97,East,82,7.0,19.0,70,0.00,,BKN040,0.00,522.00,VWS V14.01,2013-06-01 21:29:00,
2013-06-01 17:30:00,85.3,74.0,29.97,NNE,26,5.0,19.0,69,0.00,,,0.00,290.00,VWS V15.00,2013-06-01 21:30:00,
2013-06-01 17:34:00,84.4,73.6,29.96,East,81,7.0,19.0,70,0.00,,BKN040,0.00,501.00,VWS V14.01,2013-06-01 21:34:00,
2013-06-01 17:39:00,84.7,74.3,29.96,East,97,16.0,20.0,71,0.00,,BKN040,0.00,497.00,VWS V14.01,2013-06-01 21:39:00,
2013-06-01 17:44:00,84.8,74.8,29.96,NNE,21,10.0,20.0,72,0.00,,BKN040,0.00,510.00,VWS V14.01,2013-06-01 21:44:00,
2013-06-01 17:49:00,85.1,75.1,29.97,NNE,33,8.0,20.0,72,0.00,,BKN040,0.00,598.00,VWS V14.01,2013-06-01 21:49:00,
2013-06-01 17:54:00,84.8,74.4,29.97,ENE,58,12.0,21.0,71,0.00,,BKN040,0.00,130.00,VWS V14.01,2013-06-01 21:54:00,
2013-06-01 17:59:00,83.4,73.8,29.97,ENE,60,9.0,21.0,73,0.00,,SCT030,0.00,425.00,VWS V14.01,2013-06-01 21:59:00,
2013-06-01 18:00:00,84.8,74.4,29.97,ENE,61,8.0,17.0,71,0.00,,,0.00,239.00,VWS V15.00,2013-06-01 22:00:00,
2013-06-01 18:04:00,82.7,74.0,29.97,ENE,71,8.0,18.0,75,0.00,,SCT030,0.00,404.00,VWS V14.01,2013-06-01 22:04:00,
2013-06-01 18:09:00,82.3,74.0,29.97,East,93,7.0,18.0,76,0.00,,SCT030,0.00,381.00,VWS V14.01,2013-06-01 22:09:00,
2013-06-01 18:14:00,82.1,73.8,29.97,NE,55,13.0,18.0,76,0.00,,SCT030,0.00,362.00,VWS V14.01,2013-06-01 22:14:00,
2013-06-01 18:19:00,82.3,73.6,29.97,ENE,64,12.0,18.0,75,0.00,,SCT030,0.00,341.00,VWS V14.01,2013-06-01 22:19:00,
2013-06-01 18:24:00,82.3,73.6,29.97,East,92,15.0,18.0,75,0.00,,SCT030,0.00,325.00,VWS V14.01,2013-06-01 22:24:00,
2013-06-01 18:30:00,82.2,73.9,29.97,ENE,67,11.0,18.0,76,0.00,,SCT030,0.00,309.00,VWS V14.01,2013-06-01 22:30:00,
2013-06-01 18:35:00,82.1,73.8,29.97,ENE,76,10.0,17.0,76,0.00,,SCT030,0.00,292.00,VWS V14.01,2013-06-01 22:35:00,
2013-06-01 18:40:00,81.7,73.4,29.97,ENE,61,16.0,20.0,76,0.00,,SCT030,0.00,274.00,VWS V14.01,2013-06-01 22:40:00,
2013-06-01 18:45:00,81.4,73.9,29.97,NE,34,5.0,20.0,78,0.00,,SCT030,0.00,257.00,VWS V14.01,2013-06-01 22:45:00,
2013-06-01 18:50:00,81.3,73.8,29.97,ENE,68,11.0,20.0,78,0.00,,SCT030,0.00,243.00,VWS V14.01,2013-06-01 22:50:00,
2013-06-01 18:55:00,81.2,74.1,29.97,East,79,10.0,20.0,79,0.00,,SCT030,0.00,221.00,VWS V14.01,2013-06-01 22:55:00,
2013-06-01 19:00:00,81.0,73.9,29.97,ENE,69,4.0,20.0,79,0.00,,SCT029,0.00,206.00,VWS V14.01,2013-06-01 23:00:00,
2013-06-01 19:05:00,81.0,74.2,29.97,ENE,72,14.0,17.0,80,0.00,,SCT029,0.00,190.00,VWS V14.01,2013-06-01 23:05:00,
2013-06-01 19:10:00,80.8,73.7,29.97,East,86,7.0,18.0,79,0.00,,SCT029,0.00,165.00,VWS V14.01,2013-06-01 23:10:00,
2013-06-01 19:15:00,80.7,74.0,29.97,ENE,73,9.0,18.0,80,0.00,,SCT029,0.00,155.00,VWS V14.01,2013-06-01 23:15:00,
2013-06-01 19:20:00,80.5,73.8,29.97,East,81,15.0,18.0,80,0.00,,SCT029,0.00,58.00,VWS V14.01,2013-06-01 23:20:00,
2013-06-01 19:25:00,80.4,74.0,29.98,ENE,57,5.0,18.0,81,0.00,,SCT029,0.00,72.00,VWS V14.01,2013-06-01 23:25:00,
2013-06-01 19:30:00,80.3,73.9,29.98,East,83,11.0,18.0,81,0.00,,SCT029,0.00,69.00,VWS V14.01,2013-06-01 23:30:00,
2013-06-01 19:35:00,80.1,73.8,29.98,East,81,13.0,15.0,81,0.00,,SCT029,0.00,44.00,VWS V14.01,2013-06-01 23:35:00,
2013-06-01 19:40:00,79.8,73.4,29.98,East,91,5.0,15.0,81,0.00,,SCT029,0.00,28.00,VWS V14.01,2013-06-01 23:40:00,
2013-06-01 19:45:00,79.4,73.4,29.98,ENE,69,7.0,15.0,82,0.00,,SCT029,0.00,40.00,VWS V14.01,2013-06-01 23:45:00,
2013-06-01 19:50:00,79.1,73.1,29.98,ESE,105,7.0,15.0,82,0.00,,SCT029,0.00,40.00,VWS V14.01,2013-06-01 23:50:00,
2013-06-01 19:55:00,78.9,73.3,29.98,ESE,106,10.0,15.0,83,0.00,,SCT029,0.00,39.00,VWS V14.01,2013-06-01 23:55:00,
2013-06-01 20:00:00,78.7,73.1,29.98,East,82,8.0,15.0,83,0.00,,FEW027,0.00,25.00,VWS V14.01,2013-06-02 00:00:00,
2013-06-01 20:05:00,78.6,73.0,29.98,NE,55,10.0,14.0,83,0.00,,FEW027,0.00,16.00,VWS V14.01,2013-06-02 00:05:00,
2013-06-01 20:10:00,78.4,73.2,29.98,ESE,107,9.0,14.0,84,0.00,,FEW027,0.00,12.00,VWS V14.01,2013-06-02 00:10:00,
2013-06-01 20:15:00,78.1,72.9,29.99,ENE,75,10.0,14.0,84,0.00,,FEW027,0.00,12.00,VWS V14.01,2013-06-02 00:15:00,
2013-06-01 20:21:00,78.0,73.1,29.99,ENE,66,8.0,14.0,85,0.00,,SCT019,0.00,11.00,VWS V14.01,2013-06-02 00:21:00,
2013-06-01 20:26:00,77.9,73.0,29.99,NE,53,4.0,14.0,85,0.00,,SCT019,0.00,9.00,VWS V14.01,2013-06-02 00:26:00,
2013-06-01 20:30:00,77.7,73.2,30.00,East,87,11.0,14.0,86,0.00,,,0.00,5.00,VWS V15.00,2013-06-02 00:30:00,
2013-06-01 20:31:00,77.7,73.2,30.00,East,90,9.0,11.0,86,0.00,,SCT019,0.00,5.00,VWS V14.01,2013-06-02 00:31:00,
2013-06-01 20:36:00,77.5,73.0,30.00,East,84,7.0,13.0,86,0.00,,SCT019,0.00,0.00,VWS V14.01,2013-06-02 00:36:00,
2013-06-01 20:41:00,77.4,73.2,30.00,ENE,72,4.0,13.0,87,0.00,,BKN046,0.00,0.00,VWS V14.01,2013-06-02 00:41:00,
2013-06-01 20:46:00,77.3,73.1,30.00,ENE,78,11.0,13.0,87,0.00,,BKN046,0.00,0.00,VWS V14.01,2013-06-02 00:46:00,
2013-06-01 20:51:00,77.3,73.5,30.00,NE,43,6.0,13.0,88,0.00,,BKN046,0.00,0.00,VWS V14.01,2013-06-02 00:51:00,
2013-06-01 20:56:00,77.3,73.5,30.00,East,86,5.0,13.0,88,0.00,,BKN046,0.00,0.00,VWS V14.01,2013-06-02 00:56:00,
2013-06-01 21:00:00,78.7,73.1,29.98,East,80,8.0,15.0,83,0.00,,,0.00,25.00,VWS V15.00,2013-06-02 01:00:00,
2013-06-01 21:01:00,77.2,73.4,30.00,East,88,5.0,7.0,88,0.00,,OVC035,0.00,0.00,VWS V14.01,2013-06-02 01:01:00,
2013-06-01 21:06:00,77.2,73.4,30.00,NE,49,4.0,9.0,88,0.00,,OVC035,0.00,0.00,VWS V14.01,2013-06-02 01:06:00,
2013-06-01 21:11:00,77.1,73.3,30.01,ENE,74,4.0,10.0,88,0.00,,OVC035,0.00,0.00,VWS V14.01,2013-06-02 01:11:00,
2013-06-01 21:16:00,77.1,73.6,30.01,ESE,105,5.0,11.0,89,0.00,,OVC035,0.00,0.00,VWS V14.01,2013-06-02 01:16:00,
2013-06-01 21:21:00,77.2,73.7,30.01,East,84,6.0,13.0,89,0.00,,OVC029,0.00,0.00,VWS V14.01,2013-06-02 01:21:00,
2013-06-01 21:26:00,77.4,73.9,30.01,NE,46,6.0,13.0,89,0.00,,OVC029,0.00,0.00,VWS V14.01,2013-06-02 01:26:00,
2013-06-01 21:30:00,77.7,73.2,30.00,East,87,11.0,14.0,86,0.00,,,0.00,5.00,VWS V15.00,2013-06-02 01:30:00,
2013-06-01 21:31:00,77.4,73.9,30.01,ESE,106,3.0,4.0,89,0.00,,OVC029,0.00,0.00,VWS V14.01,2013-06-02 01:31:00,
2013-06-01 21:36:00,77.3,73.8,30.00,East,98,7.0,10.0,89,0.00,,OVC029,0.00,0.00,VWS V14.01,2013-06-02 01:36:00,
2013-06-01 21:41:00,77.3,73.8,30.01,East,80,9.0,11.0,89,0.00,,OVC031,0.00,0.00,VWS V14.01,2013-06-02 01:41:00,
2013-06-01 21:46:00,77.2,73.7,30.01,East,90,6.0,11.0,89,0.00,,OVC031,0.00,0.00,VWS V14.01,2013-06-02 01:46:00,
2013-06-01 21:51:00,77.0,73.5,30.01,ENE,76,5.0,11.0,89,0.00,,OVC031,0.00,0.00,VWS V14.01,2013-06-02 01:51:00,
2013-06-01 21:56:00,76.9,73.8,30.01,East,85,8.0,11.0,90,0.00,,OVC031,0.00,0.00,VWS V14.01,2013-06-02 01:56:00,
2013-06-01 22:00:00,77.0,73.8,30.01,East,96,9.0,11.0,90,0.00,,,0.00,0.00,VWS V15.00,2013-06-02 02:00:00,
2013-06-01 22:01:00,77.0,73.8,30.01,ESE,110,7.0,9.0,90,0.00,,OVC032,0.00,0.00,VWS V14.01,2013-06-02 02:01:00,
2013-06-01 22:07:00,77.0,73.5,30.01,East,81,6.0,11.0,89,0.00,,OVC032,0.00,0.00,VWS V14.01,2013-06-02 02:07:00,
2013-06-01 22:12:00,76.9,73.4,30.02,ESE,107,7.0,15.0,89,0.00,,OVC032,0.00,0.00,VWS V14.01,2013-06-02 02:12:00,
2013-06-01 22:17:00,77.0,73.2,30.02,East,84,7.0,15.0,88,0.00,,OVC032,0.00,0.00,VWS V14.01,2013-06-02 02:17:00,
2013-06-01 22:22:00,76.9,73.1,30.02,ESE,121,9.0,15.0,88,0.00,,OVC039,0.00,0.00,VWS V14.01,2013-06-02 02:22:00,
2013-06-01 22:27:00,76.9,73.1,30.02,ESE,123,7.0,15.0,88,0.00,,OVC039,0.00,0.00,VWS V14.01,2013-06-02 02:27:00,
2013-06-01 22:30:00,76.8,73.0,30.02,ESE,123,5.0,15.0,88,0.00,,,0.00,0.00,VWS V15.00,2013-06-02 02:30:00,
2013-06-01 22:32:00,76.7,72.9,30.02,ENE,69,4.0,8.0,88,0.00,,OVC039,0.00,0.00,VWS V14.01,2013-06-02 02:32:00,
2013-06-01 22:37:00,76.6,72.8,30.02,East,98,5.0,12.0,88,0.00,,OVC039,0.00,0.00,VWS V14.01,2013-06-02 02:37:00,
2013-06-01 22:42:00,76.6,73.1,30.02,ESE,111,11.0,12.0,89,0.00,,OVC017,0.00,0.00,VWS V14.01,2013-06-02 02:42:00,
2013-06-01 22:47:00,76.6,73.1,30.02,ESE,111,7.0,12.0,89,0.00,,OVC017,0.00,0.00,VWS V14.01,2013-06-02 02:47:00,
2013-06-01 22:52:00,76.6,73.1,30.02,East,101,3.0,12.0,89,0.00,,OVC017,0.00,0.00,VWS V14.01,2013-06-02 02:52:00,
2013-06-01 22:57:00,76.6,73.1,30.02,ENE,78,8.0,13.0,89,0.00,,OVC017,0.00,0.00,VWS V14.01,2013-06-02 02:57:00,
2013-06-01 23:00:00,76.6,73.1,30.02,East,94,7.0,13.0,89,0.00,,,0.00,0.00,VWS V15.00,2013-06-02 03:00:00,
2013-06-01 23:02:00,76.5,73.0,30.02,East,101,6.0,7.0,89,0.00,,OVC050,0.00,0.00,VWS V14.01,2013-06-02 03:02:00,
2013-06-01 23:07:00,76.4,73.2,30.02,East,94,6.0,11.0,90,0.00,,OVC050,0.00,0.00,VWS V14.01,2013-06-02 03:07:00,
2013-06-01 23:12:00,76.5,73.3,30.02,East,100,6.0,13.0,90,0.00,,OVC050,0.00,0.00,VWS V14.01,2013-06-02 03:12:00,
2013-06-01 23:17:00,76.4,73.2,30.01,ESE,103,7.0,14.0,90,0.00,,OVC050,0.00,0.00,VWS V14.01,2013-06-02 03:17:00,
2013-06-01 23:22:00,76.3,73.2,30.02,ESE,111,8.0,14.0,90,0.00,,OVC050,0.00,0.00,VWS V14.01,2013-06-02 03:22:00,
2013-06-01 23:27:00,76.4,73.2,30.02,ESE,117,7.0,14.0,90,0.00,,OVC050,0.00,0.00,VWS V14.01,2013-06-02 03:27:00,
2013-06-01 23:30:00,76.8,73.0,30.02,ESE,123,5.0,15.0,88,0.00,,,0.00,0.00,VWS V15.00,2013-06-02 03:30:00,
2013-06-01 23:32:00,76.4,73.2,30.02,East,100,7.0,11.0,90,0.00,,OVC050,0.00,0.00,VWS V14.01,2013-06-02 03:32:00,
2013-06-01 23:37:00,76.4,73.2,30.02,ESE,108,7.0,11.0,90,0.00,,OVC050,0.00,0.00,VWS V14.01,2013-06-02 03:37:00,
2013-06-01 23:42:00,76.3,73.5,30.01,ESE,106,9.0,11.0,91,0.00,,OVC036,0.00,0.00,VWS V14.01,2013-06-02 03:42:00,
2013-06-01 23:47:00,76.1,73.3,30.02,ESE,102,4.0,12.0,91,0.00,,OVC036,0.00,0.00,VWS V14.01,2013-06-02 03:47:00,
2013-06-01 23:52:00,76.0,73.2,30.01,ESE,106,5.0,12.0,91,0.00,,OVC036,0.00,0.00,VWS V14.01,2013-06-02 03:52:00,
2013-06-01 23:57:00,75.8,73.3,30.02,East,101,6.0,12.0,92,0.00,,BKN036,0.00,0.00,VWS V14.01,2013-06-02 03:57:00,